Starlink 4772

operational
NORAD ID: 53932 Int'l Des: 2022-119 Owner: SPXS Country: US Constellation: starlink
LEOCIRCULAR

关于 Starlink 4772

正在加载描述...

实时位置

正在加载3D地球...

即将过境

高度历史

Altitude vs Time

uPlot chart will show altitude changes over time

两行轨道根数

1 53932U 22119AY 25303.92279781 .00000198 00000-0 30499-4 0 9992
2 53932 53.2163 161.7579 0001328 91.0245 269.0900 15.08841119172458
Epoch: Oct 30, 2025 • Age: 21 hours

当前状态

高度 547.4 km
速度 7.59 km/s
星下点 -24.51°S, 177.63°E
发射日期 Sep 24, 2022
运行时间 3 years
类型 internet

技术详情

分类 Payload
质量 305.00 kg
干质量 290.00 kg
总质量 305.00 kg
长度 0.20 m
直径 2.80 m
跨度 9.00 m
形状 Box + pan
制造商 SPXS
平台类型 Starlink
阶段状态 In Orbit
所有者/国家 SPXS/US

大型星座

Loading constellations...